EW3263 Weather Reports


time (UTC)temp
C
wind
direction
speed
KPH
gust
KPH
rain 1hr
cm
rain 24hr
cm
rain mn
cm
humidity
%
barometer
mb
20260507093049 10 0.0 0.0 0.00 0.00 0.00 88 1022.7
20260507091546 10 0.0 0.0 0.00 0.00 0.00 87 1022.8
20260507090041 10 0.0 0.0 0.00 0.00 0.00 88 1023.0
20260507084536 10 0.0 0.0 0.00 0.00 0.00 87 1023.3
20260507083033 11 0.0 0.0 0.00 0.00 0.00 87 1023.4
20260507081526 11 0.0 0.0 0.00 0.00 0.00 87 1023.4
20260507080023 11 0.0 0.0 0.00 0.00 0.00 87 1023.5
20260507074517 11 0.0 0.0 0.00 0.00 0.00 87 1023.5
20260507073013 11 0.0 0.0 0.00 0.00 0.00 86 1023.5
20260507071508 11 0.0 0.0 0.00 0.00 0.00 84 1023.6
20260507070010 12 0.0 0.0 0.00 0.00 0.00 85 1023.7
20260507064603 12 0.0 0.0 0.00 0.00 0.00 84 1023.9
20260507063105 12 0.0 0.0 0.00 0.00 0.00 84 1024.0
20260507061552 12 0.0 0.0 0.00 0.00 0.00 84 1023.8
20260507060047 12 0.0 0.0 0.00 0.00 0.00 83 1023.9
20260507054542 12 0.0 0.0 0.00 0.00 0.00 83 1023.9
20260507053039 12 0.0 0.0 0.00 0.00 0.00 82 1024.0
20260507051534 13 0.0 0.0 0.00 0.00 0.00 81 1024.0
20260507050032 13 0.0 0.0 0.00 0.00 0.00 80 1023.9
20260507044526 13 0.0 0.0 0.00 0.00 0.00 79 1024.0
20260507043024 13 0.0 0.0 0.00 0.00 0.00 79 1023.9
20260507041517 13 0.0 0.0 0.00 0.00 0.00 78 1023.8
20260507040014 13 0.0 0.0 0.00 0.00 0.00 76 1023.7
20260507034507 14 0.0 0.0 0.00 0.00 0.00 74 1023.5
20260507033003 15 0.0 0.0 0.00 0.00 0.00 73 1023.5
20260507031558 15 0.0 0.0 0.00 0.00 0.00 72 1023.3
20260507030055 15 0.0 0.0 0.00 0.00 0.00 71 1023.3
20260507024603 16 0.0 0.0 0.00 0.00 0.00 68 1023.1
20260507023049 16 0.0 0.0 0.00 0.00 0.00 67 1023.0
20260507021545 17 0.0 0.0 0.00 0.00 0.00 66 1022.9
20260507020055 17 0.0 0.0 0.00 0.00 0.00 64 1022.9
20260507014533 18 0.0 0.0 0.00 0.00 0.00 63 1022.7
20260507013042 18 0.0 0.0 0.00 0.00 0.00 63 1022.6
20260507011524 18 0.0 0.0 0.00 0.00 0.00 62 1022.7
20260507010025 19 0.0 0.0 0.00 0.00 0.00 61 1022.6
20260507004514 19 0.0 0.0 0.00 0.00 0.00 61 1022.6
20260507003010 20 0.0 0.0 0.00 0.00 0.00 61 1022.6
20260507001509 20 0.0 0.0 0.00 0.00 0.00 61 1022.4
20260507000002 20 0.0 0.0 0.00 0.00 0.00 57 1022.3
20260506234556 20 0.0 0.0 0.00 0.00 0.00 59 1022.2
20260506233108 20 0.0 0.0 0.00 0.00 0.00 58 1022.3
20260506231555 20 0.0 0.0 0.00 0.00 0.00 56 1022.3
20260506230048 20 0.0 0.0 0.00 0.00 0.00 57 1022.3
20260506224540 21 0.0 0.0 0.00 0.00 0.00 55 1022.4
20260506223042 21 0.0 0.0 0.00 0.00 0.00 55 1022.5
20260506221530 21 0.0 0.0 0.00 0.00 0.00 53 1022.6
20260506220027 22 0.0 0.0 0.00 0.00 0.00 54 1022.7
20260506214536 22 0.0 0.0 0.00 0.00 0.00 50 1022.7
20260506213020 22 0.0 0.0 0.00 0.00 0.00 49 1022.9
20260506211514 22 0.0 0.0 0.00 0.00 0.00 48 1023.0
20260506210009 22 0.0 0.0 0.00 0.00 0.00 46 1023.1
20260506204505 22 0.0 0.0 0.00 0.00 0.00 47 1023.3
20260506203001 22 0.0 0.0 0.00 0.00 0.00 46 1023.4
20260506201557 21 0.0 0.0 0.00 0.00 0.00 47 1023.6
20260506200052 21 0.0 0.0 0.00 0.00 0.00 49 1023.8
20260506194548 21 0.0 0.0 0.00 0.00 0.00 50 1024.0
20260506193043 20 0.0 0.0 0.00 0.00 0.00 56 1024.1
20260506191541 20 0.0 0.0 0.00 0.00 0.00 54 1024.3
20260506190035 19 0.0 0.0 0.00 0.00 0.00 55 1024.4
20260506184544 18 0.0 0.0 0.00 0.00 0.00 56 1024.6
20260506183036 18 0.0 0.0 0.00 0.00 0.00 59 1024.8
20260506181526 18 0.0 0.0 0.00 0.00 0.00 58 1024.8
20260506180017 17 0.0 0.0 0.00 0.00 0.00 61 1024.9
20260506174512 17 0.0 0.0 0.00 0.03 0.00 62 1025.1
20260506173007 16 0.0 0.0 0.00 0.03 0.00 61 1025.2
20260506171507 16 0.0 0.0 0.00 0.03 0.00 64 1025.3
20260506170059 15 0.0 0.0 0.00 0.03 0.00 66 1025.2
20260506164606 15 0.0 0.0 0.00 0.03 0.00 64 1025.2
20260506163052 14 0.0 0.0 0.00 0.03 0.00 65 1025.2
20260506161548 14 0.0 0.0 0.00 0.03 0.00 67 1025.3
20260506160051 13 0.0 0.0 0.00 0.03 0.00 70 1025.2
20260506154537 13 0.0 0.0 0.00 0.20 0.00 71 1025.3
20260506153041 13 0.0 0.0 0.00 0.20 0.00 70 1025.4
20260506151529 12 0.0 0.0 0.00 0.20 0.00 73 1025.4
20260506150024 12 0.0 0.0 0.00 0.20 0.00 74 1025.4
20260506144521 11 0.0 0.0 0.00 0.20 0.00 78 1025.4
20260506143016 10 0.0 0.0 0.00 0.20 0.00 80 1025.3
20260506141513 8 0.0 0.0 0.00 0.20 0.00 86 1025.3
20260506140006 6 0.0 0.0 0.00 0.20 0.00 91 1025.2
20260506134502 6 0.0 0.0 0.00 0.30 0.00 91 1025.1
20260506133100 6 0.0 0.0 0.00 0.30 0.00 91 1024.9
20260506131555 6 0.0 0.0 0.00 0.30 0.00 90 1024.8
20260506130049 6 0.0 0.0 0.00 0.30 0.00 90 1024.7
20260506124545 6 0.0 0.0 0.00 0.43 0.00 90 1024.5
20260506123041 6 0.0 0.0 0.00 0.43 0.00 90 1024.3
20260506121537 6 0.0 0.0 0.00 0.43 0.00 90 1024.3
20260506120038 6 0.0 0.0 0.00 0.43 0.00 90 1024.3
20260506114529 6 0.0 0.0 0.00 0.46 0.00 90 1024.2
20260506113035 6 0.0 0.0 0.00 0.46 0.00 90 1024.3
20260506111519 6 0.0 0.0 0.00 0.46 0.00 91 1024.1
20260506110014 6 0.0 0.0 0.00 0.46 0.00 89 1024.1
20260506104510 6 0.0 0.0 0.00 0.56 0.00 90 1024.1
20260506103009 6 0.0 0.0 0.00 0.56 0.00 90 1023.9
20260506101501 7 0.0 0.0 0.00 0.56 0.00 90 1024.0
20260506100058 7 0.0 0.0 0.00 0.56 0.00 90 1023.9
20260506094553 7 0.0 0.0 0.00 0.71 0.00 89 1023.9